Burbank, CA

6:01 AM PST on December 11, 2016 (GMT -0800)
Burbank-Glendale-Pasadena

Weather History for KBUR - May, 2013

Change the Weather History Date:

Tuesday, May 14, 2013

  Actual Average Record
Temperature  
Mean Temperature 73 °F 65 °F  
Max Temperature 83 °F 76 °F 100 °F (1970)
Min Temperature 63 °F 55 °F 43 °F (1942)
Degree Days  
Heating Degree Days 0 2  
Month to date heating degree days 4 33  
Since 1 July heating degree days 1105 1530  
Cooling Degree Days 8 2  
Month to date cooling degree days 107 28  
Year to date cooling degree days 234 79  
Growing Degree Days 23 (Base 50)    
Moisture  
Dew Point 51 °F    
Average Humidity 47    
Maximum Humidity 68    
Minimum Humidity 26    
Precipitation  
Precipitation 0.00 in 0.01 in 0.37 in (1962)
Month to date precipitation T 0.21  
Year to date precipitation 1.90 12.30  
Since 1 July precipitation 4.70  
Sea Level Pressure  
Sea Level Pressure 29.90 in    
Wind  
Wind Speed 9 mph (SE)    
Max Wind Speed 16 mph    
Max Gust Speed 26 mph    
Visibility 10 miles    
Events      
T = Trace of Precipitation, MM = Missing Value Source: NWS Daily Summary

Daily Weather History Graph

Daily Weather History Graph

Search for Another Location

Airport or City:

Trip Planner

Search our weather history database for the weather conditions in past years. The results will help you decide how hot, cold, wet, or windy it might be!

Date:

Astronomy

May. 14, 2013 Rise Set
Actual Time 5:52 AM PDT 7:47 PM PDT
Civil Twilight 5:24 AM PDT 8:15 PM PDT
Nautical Twilight 4:50 AM PDT 8:49 PM PDT
Astronomical Twilight 4:15 AM PDT 9:25 PM PDT
Moon 9:35 AM PDT (5/14) 11:39 PM PDT (5/14)
Length of Visible Light 14h 51m
Length of Day
13h 55m
Waxing Crescent, 19% of the Moon is Illuminated
May 14
Waxing Crescent
May 17
First Quarter
May 24
Full
May 31
Last Quarter
Jun 8
New

Hourly Weather History & Observations

Time (PDT) Temp. Heat Index Dew Point Humidity Pressure Visibility Wind Dir Wind Speed Gust Speed Precip Events Conditions
12:53 AM 77.0 °F - 43.0 °F 30% 29.87 in 10.0 mi Calm Calm - N/A   Clear
1:53 AM 77.0 °F - 43.0 °F 30% 29.86 in 10.0 mi SE 3.5 mph - N/A   Clear
2:53 AM 73.9 °F - 53.1 °F 48% 29.85 in 10.0 mi SE 6.9 mph - N/A   Clear
3:53 AM 71.1 °F - 55.0 °F 57% 29.86 in 10.0 mi ESE 9.2 mph - N/A   Clear
4:53 AM 69.1 °F - 55.0 °F 61% 29.87 in 10.0 mi ENE 4.6 mph - N/A   Clear
5:53 AM 66.9 °F - 55.0 °F 66% 29.88 in 10.0 mi ESE 5.8 mph - N/A   Clear
6:53 AM 66.0 °F - 54.0 °F 65% 29.90 in 10.0 mi East 9.2 mph - N/A   Clear
7:53 AM 66.9 °F - 55.0 °F 66% 29.92 in 10.0 mi ESE 6.9 mph - N/A   Clear
8:53 AM 70.0 °F - 54.0 °F 57% 29.92 in 10.0 mi SE 11.5 mph - N/A   Clear
9:53 AM 73.9 °F - 53.1 °F 48% 29.93 in 10.0 mi ESE 10.4 mph - N/A   Clear
10:53 AM 78.1 °F - 52.0 °F 40% 29.92 in 10.0 mi SE 11.5 mph - N/A   Clear
11:53 AM 81.0 °F 80.4 °F 53.1 °F 38% 29.92 in 10.0 mi ESE 11.5 mph - N/A   Clear
12:53 PM 82.0 °F - 45.0 °F 27% 29.91 in 10.0 mi South 10.4 mph - N/A   Clear
1:53 PM 81.0 °F - 46.0 °F 29% 29.89 in 10.0 mi South 15.0 mph - N/A   Clear
2:53 PM 81.0 °F - 44.1 °F 27% 29.90 in 10.0 mi SSE 10.4 mph - N/A   Clear
3:53 PM 80.1 °F - 48.9 °F 34% 29.88 in 10.0 mi South 11.5 mph - N/A   Clear
4:53 PM 78.1 °F - 52.0 °F 40% 29.88 in 10.0 mi South 9.2 mph - N/A   Clear
5:53 PM 75.9 °F - 51.1 °F 42% 29.88 in 10.0 mi South 10.4 mph - N/A   Clear
6:53 PM 71.1 °F - 51.1 °F 49% 29.89 in 10.0 mi South 8.1 mph - N/A   Clear
7:53 PM 69.1 °F - 51.1 °F 53% 29.91 in 10.0 mi SE 11.5 mph 26.5 mph N/A   Clear
8:53 PM 68.0 °F - 50.0 °F 52% 29.93 in 10.0 mi SSE 9.2 mph - N/A   Clear
9:53 PM 64.0 °F - 51.1 °F 63% 29.95 in 10.0 mi SSE 4.6 mph - N/A   Clear
10:53 PM 64.0 °F - 52.0 °F 65% 29.95 in 10.0 mi East 6.9 mph - N/A   Clear
11:53 PM 64.0 °F - 51.1 °F 63% 29.96 in 10.0 mi East 5.8 mph - N/A   Clear